Location: La Fredeussais
(48.1780°N, 1.3980°W)
Time: 12:52:31
(UTC+00:00)

ITUPSAT 1 - Visible Passes

Search period start: 23 October 2021 00:00
Search period end: 02 November 2021 00:00
Orbit: 700 x 713 km, 98.6° (Epoch: 22 October)

Date Brightness Start Highest point End Pass type
(mag) Time Alt. Az. Time Alt. Az. Time Alt. Az.
23 Oct ? 05:51:47 10° SE 05:55:59 32° ENE 06:00:11 10° N visible
24 Oct ? 05:00:56 10° ENE 05:02:52 12° NE 05:04:49 10° NNE visible
25 Oct ? 05:42:29 10° ESE 05:46:25 27° ENE 05:50:23 10° N visible
26 Oct ? 04:52:43 10° ENE 04:53:24 10° NE 04:54:05 10° NE visible
27 Oct ? 05:33:14 10° ESE 05:36:53 23° ENE 05:40:33 10° N visible
29 Oct ? 05:24:05 10° ESE 05:27:22 19° ENE 05:30:40 10° NNE visible
30 Oct ? 06:06:37 10° SE 06:11:04 42° ENE 06:15:33 10° N visible
31 Oct ? 05:15:01 10° E 05:17:51 16° ENE 05:20:41 10° NNE visible
01 Nov ? 05:57:13 10° SE 06:01:29 34° ENE 06:05:47 10° N visible
